When you browse on this site, cookies collect data to enhance your experience and personalize the content and advertising you see.
Visit our Privacy Policy to learn more. By continuing to use the site, you agree to this use of cookies and data.
  • In Österreich
  • Länderverzeichnis
  • Für 7 Tage
  • Wassertemperatur
  • Wetterkarte
  • News
  • Widgets
  • user-avatar
    Anmelden

    Stündliche Wetter Trujillo

    Heute, 24 Januar, Freitag

    Zeit Temperatur Niederschläge Wind Luftdruck Luftfeuchtigkeit
    00:00 +19°C° 0 mm 1 m/S 646 mmHg 91%
    01:00 +19°C° 0 mm 1 m/S 646 mmHg 91%
    02:00 +19°C° 0 mm 1 m/S 646 mmHg 90%
    03:00 +19°C° 0 mm 1 m/S 646 mmHg 89%
    04:00 +19°C° 0 mm 1 m/S 645 mmHg 89%
    05:00 +19°C° 0 mm 1 m/S 646 mmHg 87%
    06:00 +19°C° 0 mm 1 m/S 647 mmHg 86%
    07:00 +17°C° 0 mm 0 m/S 647 mmHg 85%
    08:00 +22°C° 0 mm 1 m/S 648 mmHg 77%
    09:00 +24°C° 0 mm 1 m/S 649 mmHg 70%
    10:00 +26°C° 0 mm 1 m/S 650 mmHg 62%
    11:00 +26°C° 0.2 mm 1 m/S 649 mmHg 66%
    12:00 +25°C° 0.2 mm 1 m/S 649 mmHg 69%
    13:00 +25°C° 0.2 mm 1 m/S 648 mmHg 73%
    14:00 +24°C° 0.6 mm 1 m/S 647 mmHg 77%
    15:00 +24°C° 0.6 mm 1 m/S 647 mmHg 81%
    16:00 +23°C° 0.6 mm 1 m/S 646 mmHg 84%
    17:00 +22°C° 0.1 mm 1 m/S 646 mmHg 87%
    18:00 +19°C° 0.1 mm 0 m/S 646 mmHg 90%
    19:00 +18°C° 0.1 mm 0 m/S 646 mmHg 93%
    20:00 +18°C° 0 mm 0 m/S 647 mmHg 93%
    21:00 +18°C° 0 mm 0 m/S 647 mmHg 93%
    22:00 +17°C° 0 mm 0 m/S 647 mmHg 92%
    23:00 +17°C° 0 mm 0 m/S 647 mmHg 92%

    Morgen, 25 Januar, Samstag

    Zeit Temperatur Niederschläge Wind Luftdruck Luftfeuchtigkeit
    00:00 +19°C° 0 mm 1 m/S 647 mmHg 92%
    01:00 +19°C° 0 mm 1 m/S 646 mmHg 92%
    02:00 +19°C° 0 mm 1 m/S 646 mmHg 92%
    03:00 +18°C° 0 mm 1 m/S 646 mmHg 92%
    04:00 +16°C° 0 mm 0 m/S 646 mmHg 92%
    05:00 +17°C° 0 mm 0 m/S 647 mmHg 90%
    06:00 +17°C° 0 mm 0 m/S 647 mmHg 88%
    07:00 +17°C° 0 mm 0 m/S 648 mmHg 86%
    08:00 +21°C° 0 mm 1 m/S 649 mmHg 78%
    09:00 +23°C° 0 mm 1 m/S 650 mmHg 69%
    10:00 +26°C° 0 mm 1 m/S 651 mmHg 61%
    11:00 +25°C° 0.1 mm 1 m/S 650 mmHg 64%
    12:00 +25°C° 0.1 mm 1 m/S 649 mmHg 67%
    13:00 +25°C° 0.1 mm 1 m/S 648 mmHg 71%
    14:00 +24°C° 0.4 mm 1 m/S 647 mmHg 76%
    15:00 +23°C° 0.4 mm 1 m/S 647 mmHg 81%
    16:00 +20°C° 0.4 mm 0 m/S 646 mmHg 87%
    17:00 +19°C° 0.2 mm 0 m/S 646 mmHg 89%
    18:00 +19°C° 0.2 mm 0 m/S 646 mmHg 91%
    19:00 +18°C° 0.2 mm 0 m/S 646 mmHg 93%
    20:00 +17°C° 0 mm 0 m/S 647 mmHg 92%
    21:00 +17°C° 0 mm 0 m/S 647 mmHg 92%
    22:00 +19°C° 0 mm 1 m/S 647 mmHg 92%
    23:00 +18°C° 0 mm 1 m/S 647 mmHg 91%

    übermorgen, 26 Januar, Sonntag

    Zeit Temperatur Niederschläge Wind Luftdruck Luftfeuchtigkeit
    00:00 +18°C° 0 mm 1 m/S 646 mmHg 91%
    01:00 +18°C° 0 mm 1 m/S 646 mmHg 91%
    02:00 +18°C° 0 mm 1 m/S 646 mmHg 90%
    03:00 +18°C° 0 mm 1 m/S 646 mmHg 89%
    04:00 +18°C° 0 mm 1 m/S 646 mmHg 89%
    05:00 +18°C° 0 mm 1 m/S 646 mmHg 88%
    06:00 +18°C° 0 mm 1 m/S 647 mmHg 86%
    07:00 +18°C° 0 mm 1 m/S 647 mmHg 85%
    08:00 +21°C° 0 mm 1 m/S 648 mmHg 76%
    09:00 +23°C° 0 mm 1 m/S 649 mmHg 68%
    10:00 +26°C° 0 mm 1 m/S 651 mmHg 59%
    11:00 +25°C° 0.2 mm 1 m/S 650 mmHg 62%
    12:00 +25°C° 0.2 mm 1 m/S 649 mmHg 65%
    13:00 +25°C° 0.2 mm 1 m/S 648 mmHg 68%
    14:00 +24°C° 0.8 mm 1 m/S 648 mmHg 74%
    15:00 +23°C° 0.8 mm 1 m/S 647 mmHg 80%
    16:00 +22°C° 0.8 mm 1 m/S 646 mmHg 86%
    17:00 +19°C° 0.5 mm 0 m/S 646 mmHg 88%
    18:00 +18°C° 0.5 mm 0 m/S 646 mmHg 90%
    19:00 +18°C° 0.5 mm 0 m/S 646 mmHg 92%
    20:00 +17°C° 0 mm 0 m/S 647 mmHg 92%
    21:00 +19°C° 0 mm 1 m/S 647 mmHg 92%
    22:00 +19°C° 0 mm 1 m/S 647 mmHg 92%
    23:00 +18°C° 0 mm 1 m/S 647 mmHg 91%

    27 Januar, Montag

    Zeit Temperatur Niederschläge Wind Luftdruck Luftfeuchtigkeit
    00:00 +18°C° 0 mm 1 m/S 647 mmHg 91%
    01:00 +18°C° 0 mm 1 m/S 646 mmHg 91%
    02:00 +18°C° 0 mm 1 m/S 646 mmHg 91%
    03:00 +18°C° 0 mm 1 m/S 646 mmHg 91%
    04:00 +18°C° 0 mm 1 m/S 646 mmHg 91%
    05:00 +18°C° 0 mm 1 m/S 646 mmHg 89%
    06:00 +18°C° 0 mm 1 m/S 647 mmHg 88%
    07:00 +17°C° 0 mm 0 m/S 648 mmHg 87%
    08:00 +21°C° 0 mm 1 m/S 649 mmHg 80%
    09:00 +23°C° 0 mm 1 m/S 649 mmHg 73%
    10:00 +25°C° 0 mm 1 m/S 650 mmHg 66%
    11:00 +25°C° 0.1 mm 1 m/S 650 mmHg 66%
    12:00 +25°C° 0.1 mm 1 m/S 649 mmHg 66%
    13:00 +25°C° 0.1 mm 1 m/S 648 mmHg 66%
    14:00 +25°C° 0.3 mm 1 m/S 648 mmHg 70%
    15:00 +24°C° 0.3 mm 1 m/S 647 mmHg 74%
    16:00 +23°C° 0.3 mm 1 m/S 646 mmHg 78%
    17:00 +22°C° 0 mm 1 m/S 646 mmHg 83%
    18:00 +21°C° 0 mm 1 m/S 646 mmHg 87%
    19:00 +18°C° 0 mm 0 m/S 646 mmHg 91%
    20:00 +19°C° 0 mm 1 m/S 646 mmHg 91%
    21:00 +19°C° 0 mm 1 m/S 646 mmHg 90%
    22:00 +19°C° 0 mm 1 m/S 647 mmHg 89%
    23:00 +19°C° 0 mm 1 m/S 646 mmHg 88%

    28 Januar, Dienstag

    Zeit Temperatur Niederschläge Wind Luftdruck Luftfeuchtigkeit
    00:00 +19°C° 0 mm 1 m/S 646 mmHg 87%
    01:00 +19°C° 0 mm 1 m/S 646 mmHg 86%
    02:00 +18°C° 0 mm 1 m/S 646 mmHg 86%
    03:00 +18°C° 0 mm 1 m/S 646 mmHg 86%
    04:00 +18°C° 0 mm 1 m/S 646 mmHg 86%
    05:00 +18°C° 0 mm 1 m/S 646 mmHg 85%
    06:00 +19°C° 0 mm 1 m/S 647 mmHg 83%
    07:00 +19°C° 0 mm 1 m/S 648 mmHg 81%
    08:00 +21°C° 0 mm 1 m/S 648 mmHg 72%
    09:00 +24°C° 0 mm 1 m/S 649 mmHg 64%
    10:00 +26°C° 0 mm 1 m/S 650 mmHg 56%
    11:00 +26°C° 0.1 mm 1 m/S 649 mmHg 58%
    12:00 +26°C° 0.1 mm 1 m/S 649 mmHg 59%
    13:00 +27°C° 0.1 mm 1 m/S 648 mmHg 61%
    14:00 +25°C° 0.3 mm 1 m/S 647 mmHg 67%
    15:00 +24°C° 0.3 mm 1 m/S 646 mmHg 74%
    16:00 +23°C° 0.3 mm 1 m/S 645 mmHg 81%
    17:00 +22°C° 0.2 mm 1 m/S 645 mmHg 85%
    18:00 +21°C° 0.2 mm 1 m/S 646 mmHg 88%
    19:00 +18°C° 0.2 mm 0 m/S 646 mmHg 92%
    20:00 +18°C° 0.1 mm 0 m/S 646 mmHg 92%
    21:00 +19°C° 0.1 mm 1 m/S 646 mmHg 92%
    22:00 +19°C° 0.1 mm 1 m/S 646 mmHg 92%
    23:00 +19°C° 0 mm 1 m/S 646 mmHg 91%

    29 Januar, Mittwoch

    Zeit Temperatur Niederschläge Wind Luftdruck Luftfeuchtigkeit
    00:00 +18°C° 0 mm 1 m/S 646 mmHg 91%
    01:00 +18°C° 0 mm 1 m/S 646 mmHg 90%
    02:00 +18°C° 0 mm 1 m/S 646 mmHg 90%
    03:00 +18°C° 0 mm 1 m/S 645 mmHg 90%
    04:00 +18°C° 0 mm 1 m/S 645 mmHg 89%
    05:00 +18°C° 0 mm 1 m/S 646 mmHg 87%
    06:00 +19°C° 0 mm 1 m/S 647 mmHg 86%
    07:00 +19°C° 0 mm 1 m/S 647 mmHg 84%
    08:00 +21°C° 0 mm 1 m/S 648 mmHg 75%
    09:00 +24°C° 0 mm 1 m/S 649 mmHg 66%
    10:00 +26°C° 0 mm 1 m/S 650 mmHg 57%
    11:00 +26°C° 0.1 mm 1 m/S 649 mmHg 59%
    12:00 +26°C° 0.1 mm 1 m/S 649 mmHg 60%
    13:00 +26°C° 0.1 mm 1 m/S 648 mmHg 61%
    14:00 +25°C° 0.2 mm 1 m/S 647 mmHg 67%
    15:00 +24°C° 0.2 mm 1 m/S 646 mmHg 74%
    16:00 +23°C° 0.2 mm 1 m/S 645 mmHg 80%
    17:00 +22°C° 0.2 mm 1 m/S 645 mmHg 83%
    18:00 +21°C° 0.2 mm 1 m/S 645 mmHg 87%
    19:00 +18°C° 0.2 mm 0 m/S 646 mmHg 91%
    20:00 +19°C° 0 mm 1 m/S 646 mmHg 91%
    21:00 +19°C° 0 mm 1 m/S 646 mmHg 90%
    22:00 +18°C° 0 mm 1 m/S 646 mmHg 90%
    23:00 +18°C° 0 mm 1 m/S 646 mmHg 90%
    Mehr zeigen